GW5293 Weather Reports


time (UTC)temp
C
wind
direction
speed
KPH
gust
KPH
rain 1hr
cm
rain 24hr
cm
rain mn
cm
humidity
%
barometer
mb
20260505101732 12 17 4.8 6.4 0.00 0.00 0.00 76 1012.0
20260505101231 12 81 6.4 6.4 0.00 0.00 0.00 75 1012.0
20260505100731 12 108 4.8 6.4 0.00 0.00 0.00 75 1012.0
20260505100231 12 52 0.0 3.2 0.00 0.00 0.00 75 1012.0
20260505095730 12 359 3.2 4.8 0.00 0.00 0.00 74 1012.0
20260505095229 12 139 3.2 4.8 0.00 0.00 0.00 74 1012.0
20260505094729 12 68 3.2 4.8 0.00 0.00 0.00 73 1012.0
20260505094229 12 102 3.2 3.2 0.00 0.00 0.00 73 1012.0
20260505093728 12 111 3.2 4.8 0.00 0.00 0.00 73 1012.0
20260505093228 12 213 3.2 4.8 0.00 0.00 0.00 75 1012.0
20260505092727 12 66 4.8 6.4 0.00 0.00 0.00 73 1012.0
20260505092227 12 34 3.2 4.8 0.00 0.00 0.00 73 1012.0
20260505091726 12 83 4.8 6.4 0.00 0.00 0.00 72 1012.0
20260505091225 12 126 0.0 4.8 0.00 0.00 0.00 72 1012.0
20260505090725 12 52 4.8 9.7 0.00 0.00 0.00 72 1012.0
20260505090225 12 333 3.2 4.8 0.00 0.00 0.00 72 1012.0
20260505085724 12 87 4.8 4.8 0.00 0.00 0.00 72 1012.0
20260505085223 12 65 3.2 3.2 0.00 0.00 0.00 73 1012.0
20260505084723 12 295 3.2 6.4 0.00 0.00 0.00 73 1012.0
20260505084222 12 71 3.2 6.4 0.00 0.00 0.00 72 1012.0
20260505083721 12 107 0.0 3.2 0.00 0.00 0.00 72 1012.0
20260505083221 12 290 0.0 3.2 0.00 0.00 0.00 73 1012.0
20260505082720 12 66 0.0 3.2 0.00 0.00 0.00 73 1012.0
20260505082220 12 135 0.0 3.2 0.00 0.00 0.00 73 1012.0
20260505081720 12 74 0.0 0.0 0.00 0.00 0.00 74 1012.0
20260505081219 12 76 0.0 0.0 0.00 0.00 0.00 74 1012.0
20260505080718 12 76 4.8 4.8 0.00 0.00 0.00 75 1012.0
20260505080218 12 113 3.2 3.2 0.00 0.00 0.00 74 1012.0
20260505075717 12 135 0.0 0.0 0.00 0.00 0.00 75 1011.0
20260505075216 12 91 0.0 3.2 0.00 0.00 0.00 74 1011.0
20260505074716 12 104 3.2 3.2 0.00 0.00 0.00 73 1011.0
20260505074215 13 97 3.2 3.2 0.00 0.00 0.00 73 1012.0
20260505073714 13 60 0.0 0.0 0.00 0.00 0.00 74 1011.0
20260505073214 13 71 0.0 4.8 0.00 0.00 0.00 74 1012.0
20260505072714 13 116 3.2 3.2 0.00 0.00 0.00 73 1012.0
20260505072213 13 126 3.2 4.8 0.00 0.00 0.00 73 1011.0
20260505071713 13 135 0.0 3.2 0.00 0.00 0.00 75 1011.0
20260505071212 13 104 0.0 0.0 0.00 0.00 0.00 75 1012.0
20260505070711 13 141 3.2 6.4 0.00 0.00 0.00 74 1012.0
20260505070211 13 130 0.0 4.8 0.00 0.00 0.00 73 1012.0
20260505065711 13 93 0.0 3.2 0.00 0.00 0.00 74 1011.0
20260505065210 13 69 0.0 3.2 0.00 0.00 0.00 73 1011.0
20260505064710 13 130 3.2 3.2 0.00 0.00 0.00 74 1011.0
20260505064209 13 89 3.2 3.2 0.00 0.00 0.00 74 1011.0
20260505063708 13 76 4.8 4.8 0.00 0.00 0.00 74 1012.0
20260505063208 13 94 3.2 3.2 0.00 0.00 0.00 74 1012.0
20260505062707 13 107 0.0 0.0 0.00 0.00 0.00 73 1011.0
20260505062207 13 119 3.2 3.2 0.00 0.00 0.00 74 1011.0
20260505061706 13 76 3.2 3.2 0.00 0.00 0.00 74 1011.0
20260505061206 13 47 0.0 3.2 0.00 0.00 0.00 75 1011.0
20260505060705 13 132 0.0 3.2 0.00 0.00 0.00 74 1011.0
20260505060205 13 106 0.0 3.2 0.00 0.00 0.00 73 1011.0
20260505055705 13 135 0.0 3.2 0.00 0.00 0.00 72 1011.0
20260505055205 13 137 3.2 3.2 0.00 0.00 0.00 72 1012.0
20260505054704 14 133 4.8 4.8 0.00 0.00 0.00 73 1011.0
20260505054204 14 77 3.2 3.2 0.00 0.00 0.00 72 1011.0
20260505053703 14 119 3.2 3.2 0.00 0.00 0.00 72 1012.0
20260505053203 14 69 4.8 4.8 0.00 0.00 0.00 73 1011.0
20260505052702 14 65 0.0 0.0 0.00 0.00 0.00 73 1011.0
20260505052202 14 86 3.2 4.8 0.00 0.00 0.00 72 1011.0
20260505051701 14 52 0.0 3.2 0.00 0.00 0.00 72 1011.0
20260505051201 14 28 3.2 3.2 0.00 0.00 0.00 72 1011.0
20260505050701 14 47 0.0 0.0 0.00 0.00 0.00 72 1011.0
20260505050200 14 131 0.0 3.2 0.00 0.00 0.00 72 1011.0
20260505041656 15 160 3.2 3.2 0.00 0.00 0.00 70 1011.0
20260505041155 15 122 3.2 4.8 0.00 0.00 0.00 71 1011.0
20260505040655 15 124 0.0 0.0 0.00 0.00 0.00 69 1011.0
20260505040154 15 133 3.2 3.2 0.00 0.00 0.00 70 1011.0
20260505035654 15 71 3.2 4.8 0.00 0.00 0.00 70 1011.0
20260505035154 15 44 0.0 4.8 0.00 0.00 0.00 69 1011.0
20260505034653 15 50 0.0 3.2 0.00 0.00 0.00 68 1011.0
20260505034153 15 49 3.2 3.2 0.00 0.00 0.00 67 1011.0
20260505033652 16 37 0.0 0.0 0.00 0.00 0.00 66 1011.0
20260505033152 15 319 3.2 3.2 0.00 0.00 0.00 66 1011.0
20260505032651 15 40 0.0 0.0 0.00 0.00 0.00 66 1011.0
20260505032151 16 101 0.0 0.0 0.00 0.00 0.00 66 1011.0
20260505031650 16 134 3.2 3.2 0.00 0.00 0.00 66 1011.0
20260505031150 16 120 3.2 3.2 0.00 0.00 0.00 66 1011.0
20260505030649 16 62 0.0 3.2 0.00 0.00 0.00 65 1011.0
20260505030149 16 89 0.0 3.2 0.00 0.00 0.00 67 1011.0
20260505025648 16 58 4.8 4.8 0.00 0.00 0.00 67 1011.0
20260505025148 16 42 3.2 4.8 0.00 0.00 0.00 67 1012.0
20260505024648 16 67 0.0 0.0 0.00 0.00 0.00 66 1012.0
20260505024147 16 139 0.0 3.2 0.00 0.00 0.00 64 1012.0
20260505023646 16 104 0.0 0.0 0.00 0.00 0.00 64 1012.0
20260505023146 17 145 3.2 3.2 0.00 0.00 0.00 63 1011.0
20260505022645 17 122 0.0 0.0 0.00 0.00 0.00 63 1012.0
20260505022145 17 128 3.2 3.2 0.00 0.00 0.00 63 1012.0
20260505021644 17 72 0.0 4.8 0.00 0.00 0.00 62 1012.0
20260505021144 17 206 0.0 0.0 0.00 0.00 0.00 62 1011.0
20260505020643 17 29 0.0 0.0 0.00 0.00 0.00 63 1011.0
20260505020143 17 13 0.0 3.2 0.00 0.00 0.00 63 1011.0
20260505015642 17 110 0.0 0.0 0.00 0.00 0.00 62 1011.0
20260505015142 17 75 0.0 0.0 0.00 0.00 0.00 61 1011.0
20260505014641 17 77 0.0 0.0 0.00 0.00 0.00 61 1011.0
20260505014141 17 203 0.0 0.0 0.00 0.00 0.00 61 1011.0
20260505013640 17 153 3.2 4.8 0.00 0.00 0.00 61 1011.0
20260505013139 17 154 3.2 3.2 0.00 0.00 0.00 61 1011.0
20260505012639 17 142 0.0 0.0 0.00 0.00 0.00 60 1011.0
20260505012139 18 135 0.0 0.0 0.00 0.00 0.00 57 1011.0
20260505011638 18 22 0.0 3.2 0.00 0.00 0.00 57 1011.0
20260505011138 18 63 0.0 0.0 0.00 0.00 0.00 56 1011.0
20260505010638 18 286 0.0 3.2 0.00 0.00 0.00 56 1011.0
20260505010137 18 224 0.0 3.2 0.00 0.00 0.00 55 1011.0
20260505005637 18 135 0.0 0.0 0.00 0.00 0.00 54 1011.0
20260505005136 19 70 0.0 0.0 0.00 0.00 0.00 54 1011.0
20260505004636 19 58 3.2 3.2 0.00 0.00 0.00 54 1011.0
20260505004136 19 157 0.0 0.0 0.00 0.00 0.00 54 1011.0
20260505003635 20 124 0.0 3.2 0.00 0.00 0.00 54 1011.0
20260505003135 20 261 3.2 3.2 0.00 0.00 0.00 54 1011.0
20260505002634 20 104 0.0 3.2 0.00 0.00 0.00 54 1011.0
20260505002133 20 63 0.0 4.8 0.00 0.00 0.00 54 1011.0
20260505001633 20 67 0.0 3.2 0.00 0.00 0.00 52 1011.0
20260505001132 20 176 3.2 4.8 0.00 0.00 0.00 51 1011.0
20260505000632 21 187 0.0 0.0 0.00 0.00 0.00 51 1011.0
20260505000131 21 224 0.0 0.0 0.00 0.00 0.00 50 1011.0
20260504235631 21 75 0.0 0.0 0.00 0.00 0.00 50 1011.0
20260504235130 21 200 0.0 3.2 0.00 0.00 0.00 48 1010.0
20260504234630 21 331 3.2 3.2 0.00 0.00 0.00 49 1010.0
20260504234129 21 292 0.0 3.2 0.00 0.00 0.00 48 1010.0
20260504233629 21 70 0.0 3.2 0.00 0.00 0.00 48 1010.0
20260504233128 22 253 3.2 3.2 0.00 0.00 0.00 47 1010.0
20260504232628 22 135 0.0 0.0 0.00 0.00 0.00 46 1010.0
20260504232127 22 279 3.2 3.2 0.00 0.00 0.00 46 1010.0
20260504231626 22 117 0.0 0.0 0.00 0.00 0.00 45 1010.0
20260504231126 22 43 0.0 3.2 0.00 0.00 0.00 43 1010.0
20260504230625 22 152 3.2 3.2 0.00 0.00 0.00 45 1010.0
20260504230125 22 104 4.8 4.8 0.00 0.00 0.00 45 1010.0
20260504225624 22 339 0.0 3.2 0.00 0.00 0.00 42 1010.0
20260504225124 22 4 3.2 3.2 0.00 0.00 0.00 42 1010.0
20260504224623 23 224 0.0 3.2 0.00 0.00 0.00 42 1010.0
20260504224123 23 117 0.0 4.8 0.00 0.00 0.00 40 1010.0
20260504223622 23 44 0.0 0.0 0.00 0.00 0.00 41 1010.0
20260504223122 23 162 0.0 0.0 0.00 0.00 0.00 40 1011.0
20260504222621 23 46 3.2 3.2 0.00 0.00 0.00 42 1011.0
20260504222121 23 268 0.0 3.2 0.00 0.00 0.00 42 1010.0
20260504221620 23 69 0.0 8.0 0.00 0.00 0.00 40 1011.0
20260504221119 23 312 0.0 3.2 0.00 0.00 0.00 43 1011.0
20260504220619 25 86 8.0 9.7 0.00 0.00 0.00 42 1010.0
20260504220118 25 280 3.2 4.8 0.00 0.00 0.00 41 1010.0
20260504215618 25 48 4.8 6.4 0.00 0.00 0.00 42 1011.0
20260504215117 25 12 4.8 4.8 0.00 0.00 0.00 41 1011.0
20260504214617 25 216 3.2 6.4 0.00 0.00 0.00 40 1011.0
20260504214116 25 356 0.0 4.8 0.00 0.00 0.00 42 1011.0
20260504213616 26 147 4.8 4.8 0.00 0.00 0.00 43 1011.0
20260504213115 26 298 3.2 3.2 0.00 0.00 0.00 40 1011.0
20260504212615 26 166 3.2 4.8 0.00 0.00 0.00 42 1011.0
20260504212114 26 46 4.8 4.8 0.00 0.00 0.00 43 1011.0
20260504211614 26 241 3.2 3.2 0.00 0.00 0.00 41 1011.0
20260504211113 26 12 9.7 9.7 0.00 0.00 0.00 40 1011.0
20260504210613 26 229 0.0 3.2 0.00 0.00 0.00 44 1011.0
20260504210112 25 142 3.2 4.8 0.00 0.00 0.00 42 1011.0
20260504205612 26 235 6.4 11.3 0.00 0.00 0.00 40 1011.0
20260504205111 26 293 4.8 8.0 0.00 0.00 0.00 38 1011.0
20260504204610 26 109 3.2 9.7 0.00 0.00 0.00 37 1011.0
20260504204110 26 287 3.2 3.2 0.00 0.00 0.00 40 1011.0
20260504203609 26 95 4.8 8.0 0.00 0.00 0.00 39 1011.0
20260504203109 26 99 8.0 8.0 0.00 0.00 0.00 39 1011.0
20260504202608 26 314 0.0 3.2 0.00 0.00 0.00 43 1011.0
20260504202108 26 111 4.8 4.8 0.00 0.00 0.00 42 1011.0
20260504201607 26 314 3.2 3.2 0.00 0.00 0.00 43 1011.0
20260504201107 26 248 4.8 4.8 0.00 0.00 0.00 40 1012.0
20260504200606 26 103 4.8 4.8 0.00 0.00 0.00 43 1011.0
20260504200106 26 113 4.8 4.8 0.00 0.00 0.00 41 1012.0
20260504195605 26 49 4.8 8.0 0.00 0.00 0.00 43 1012.0
20260504195105 26 310 0.0 0.0 0.00 0.00 0.00 45 1012.0
20260504194604 26 128 3.2 6.4 0.00 0.00 0.00 42 1012.0
20260504194104 26 260 0.0 3.2 0.00 0.00 0.00 44 1012.0
20260504193604 26 103 4.8 4.8 0.00 0.00 0.00 43 1012.0
20260504193103 26 232 3.2 4.8 0.00 0.00 0.00 40 1012.0
20260504192602 26 316 6.4 8.0 0.00 0.00 0.00 42 1012.0
20260504192102 26 211 3.2 3.2 0.00 0.00 0.00 42 1012.0
20260504191602 26 337 6.4 6.4 0.00 0.00 0.00 44 1012.0
20260504191101 25 141 0.0 3.2 0.00 0.00 0.00 41 1012.0
20260504190600 25 21 0.0 3.2 0.00 0.00 0.00 43 1012.0
20260504190100 25 144 3.2 4.8 0.00 0.00 0.00 40 1012.0
20260504185559 25 104 3.2 6.4 0.00 0.00 0.00 41 1012.0
20260504185059 25 346 3.2 4.8 0.00 0.00 0.00 45 1013.0
20260504184558 25 209 3.2 3.2 0.00 0.00 0.00 45 1013.0
20260504184057 26 283 3.2 4.8 0.00 0.00 0.00 44 1013.0
20260504183557 25 268 0.0 3.2 0.00 0.00 0.00 47 1013.0
20260504183056 25 49 4.8 8.0 0.00 0.00 0.00 42 1013.0
20260504182556 25 10 6.4 11.3 0.00 0.00 0.00 43 1013.0
20260504182055 24 306 4.8 14.5 0.00 0.00 0.00 42 1013.0
20260504181555 25 12 8.0 11.3 0.00 0.00 0.00 42 1013.0
20260504181054 23 2 3.2 4.8 0.00 0.00 0.00 48 1013.0
20260504180553 24 58 4.8 8.0 0.00 0.00 0.00 43 1013.0
20260504180053 23 153 3.2 4.8 0.00 0.00 0.00 45 1013.0
20260504175553 24 163 3.2 4.8 0.00 0.00 0.00 44 1013.0
20260504175052 23 88 4.8 6.4 0.00 0.00 0.00 42 1013.0
20260504174552 24 281 3.2 4.8 0.00 0.00 0.00 44 1013.0
20260504174051 23 231 3.2 4.8 0.00 0.00 0.00 50 1014.0
20260504173550 23 80 3.2 4.8 0.00 0.00 0.00 43 1014.0
20260504173050 23 96 0.0 3.2 0.00 0.00 0.00 43 1014.0
20260504172549 22 156 3.2 3.2 0.00 0.00 0.00 46 1014.0
20260504172049 23 149 9.7 11.3 0.00 0.00 0.00 44 1014.0
20260504171548 22 105 0.0 4.8 0.00 0.00 0.00 47 1014.0
20260504171048 22 167 4.8 4.8 0.00 0.00 0.00 46 1014.0
20260504170547 22 50 4.8 8.0 0.00 0.00 0.00 47 1014.0
20260504151034 20 23 0.0 3.2 0.00 0.00 0.00 53 1015.0
20260504150533 20 41 4.8 4.8 0.00 0.00 0.00 48 1016.0
20260504141026 17 94 3.2 4.8 0.00 0.00 0.00 56 1016.0
20260504140526 17 193 0.0 8.0 0.00 0.00 0.00 57 1016.0
20260504130518 13 133 3.2 3.2 0.00 0.00 0.00 70 1016.0
20260504110506 5 89 4.8 4.8 0.00 0.00 0.00 95 1015.0